Probability
0 0 0 0 0 0 0 0 0 0 0 0 0 0 0 0 0 0 0 0 0 0 3 3 3 3 0 0 0 0 0 0 0 0 0 0 0 0 0 0 0 0 0
0 0 0 0 0 0 0 0 0 0 0 0 0 0 0 0 0 0 0 0 0 0 0 0 0 3 0 0 0 0 0 0 0 0 0 0 0 0 0 0 0 0 0
0 0 0 0 0 0 0 0 0 0 0 0 0 0 0 0 0 0 0 0 0 0 0 0 0 0 0 0 0 0 0 0 0 0 0 0 0 0 0 0 0 0 0
0 0 0 0 0 0 0 0 0 0 0 0 0 0 0 0 0 0 0 0 0 0 0 0 0 0 0 0 0 0 0 0 0 0 0 0 0 0 0 0 0 0 0
0 0 0 0 0 0 0 0 0 0 0 0 0 0 0 0 0 0 0 0 0 0 0 0 0 0 0 0 0 0 0 0 0 0 0 0 0 0 0 0 0 0 0
0 0 0 0 0 0 0 0 0 0 0 0 0 0 0 0 0 0 0 0 0 0 0 0 0 0 0 0 0 0 0 0 0 0 0 0 0 0 0 0 0 0 0
0 0 0 0 0 0 0 0 0 0 0 0 0 0 0 0 0 0 0 0 0 0 0 0 0 0 0 0 0 0 0 0 0 0 0 0 0 0 0 0 0 0 0
0 0 0 0 0 0 0 0 0 0 0 0 0 0 0 0 0 0 0 0 0 0 0 0 0 0 0 0 0 0 0 0 0 0 0 0 0 0 0 0 0 0 0
0 0 0 0 0 0 0 0 0 0 0 0 0 0 0 0 0 0 0 0 0 0 0 0 0 0 0 0 0 0 0 0 0 0 0 0 0 0 0 0 0 0 0
0 0 0 0 0 0 0 0 0 0 0 0 0 0 0 0 0 0 0 0 0 0 0 0 0 0 0 0 0 0 0 0 0 0 0 0 0 0 0 0 0 0 0
0 0 0 0 0 0 0 0 0 0 0 0 0 0 0 0 0 0 0 0 0 0 0 0 0 0 0 0 0 0 0 0 0 0 0 0 0 0 0 0 0 0 0
0 0 0 0 0 0 0 0 0 0 0 0 0 0 0 0 0 0 0 0 0 0 0 0 0 0 0 0 0 0 0 0 0 0 0 0 0 0 0 0 0 0 0
0 0 0 0 0 0 0 0 0 0 0 0 0 0 0 0 0 0 0 0 0 0 0 0 0 0 0 0 0 0 0 0 0 0 0 0 0 0 0 0 0 0 0
0 0 0 0 0 0 0 0 0 0 0 0 0 0 0 0 0 0 0 0 0 0 0 0 0 0 0 0 0 0 0 0 0 0 0 0 0 0 0 0 0 0 0
0 0 0 0 0 0 0 0 0 0 0 0 0 0 0 0 0 0 0 0 0 0 0 0 0 0 0 0 0 0 0 0 0 0 0 0 0 0 0 0 0 0 0
0 0 0 0 0 0 0 0 0 0 0 0 0 0 0 0 0 0 0 0 0 0 0 0 0 0 0 0 0 0 0 0 0 0 0 0 0 0 0 0 0 0 0
0 0 0 0 0 0 0 0 0 0 0 0 0 0 0 0 0 0 0 0 0 0 0 0 0 0 0 0 0 0 0 0 0 0 0 0 0 0 0 0 0 0 0
0 0 0 0 0 0 0 0 0 0 0 0 0 0 0 0 0 0 0 0 0 0 0 0 0 0 0 0 0 0 0 0 0 0 0 0 0 0 0 0 0 0 0
0 0 0 0 0 0 0 0 0 0 0 0 0 0 0 0 0 0 0 0 0 0 0 0 0 0 0 0 0 0 0 0 0 0 0 0 0 0 0 0 0 0 0
0 0 0 0 0 0 0 0 0 0 0 0 0 0 0 0 0 0 0 0 0 0 0 0 0 0 0 0 0 0 0 0 0 0 0 0 0 0 0 0 0 0 0
0 0 0 0 0 0 0 0 0 0 0 0 0 0 0 0 0 0 0 0 0 0 0 0 0 0 0 0 0 0 0 0 0 0 0 0 0 0 0 0 0 0 0
0 0 0 0 0 0 0 0 0 0 0 0 0 0 0 0 0 0 0 0 0 0 0 0 0 0 0 0 0 0 0 0 0 0 0 0 0 0 0 0 0 0 0
0 0 0 0 0 0 0 0 0 0 0 0 0 0 0 0 0 0 0 0 0 0 0 0 0 0 0 0 0 0 0 0 0 0 0 0 0 0 0 0 0 0 0
0 0 0 0 0 0 0 0 0 0 0 0 0 0 0 0 0 0 0 0 0 0 0 0 0 0 0 0 0 0 0 0 0 0 0 0 0 0 0 0 0 0 0
0 0 0 0 0 0 0 0 0 0 0 0 0 0 0 0 0 0 0 0 0 0 0 0 0 0 0 0 0 0 0 0 0 0 0 0 0 0 0 0 0 0 0
0 0 0 0 0 0 0 0 0 0 0 0 0 0 0 0 0 0 0 0 0 0 0 0 0 0 0 0 0 0 0 0 0 0 0 0 0 0 0 0 0 0 0
Height
5667 5666 5666 5666 5667 5668 5669 5671 5674 5679 5683 5689 5696 5703 5710 5716 5723 5729 5735 5742 5747 5752 5757 5762 5766 5770 5774 5778 5782 5784 5786 5788 5790 5792 5793 5794 5795 5795 5796 5797 5797 5797 5796
5660 5658 5657 5656 5656 5656 5657 5659 5662 5666 5671 5677 5683 5690 5697 5703 5710 5717 5723 5729 5735 5741 5746 5751 5755 5760 5764 5768 5772 5775 5777 5779 5781 5783 5783 5785 5786 5787 5788 5788 5789 5788 5787
5652 5650 5649 5647 5646 5646 5647 5648 5650 5655 5659 5665 5671 5677 5684 5691 5698 5705 5711 5717 5723 5729 5734 5739 5744 5748 5753 5758 5762 5765 5767 5770 5772 5773 5774 5775 5777 5778 5779 5779 5779 5778 5777
5645 5643 5641 5639 5637 5637 5637 5639 5641 5644 5648 5653 5660 5666 5673 5680 5687 5693 5699 5705 5711 5717 5722 5727 5732 5737 5742 5746 5751 5754 5757 5759 5761 5763 5764 5766 5767 5768 5769 5769 5768 5767 5766
5640 5637 5634 5631 5630 5629 5629 5630 5632 5635 5639 5643 5649 5655 5662 5669 5676 5682 5688 5693 5698 5704 5710 5715 5720 5725 5730 5735 5739 5742 5746 5748 5751 5752 5754 5755 5756 5756 5756 5757 5758 5756 5755
5635 5631 5628 5625 5624 5623 5622 5623 5625 5627 5631 5635 5641 5646 5652 5658 5665 5671 5676 5682 5687 5692 5697 5702 5707 5712 5717 5722 5727 5730 5734 5737 5739 5741 5742 5743 5744 5744 5744 5744 5745 5744 5744
5631 5627 5624 5621 5619 5618 5617 5618 5619 5622 5625 5628 5633 5638 5644 5649 5655 5661 5667 5671 5676 5681 5685 5690 5695 5701 5705 5710 5715 5719 5722 5725 5727 5729 5730 5731 5732 5731 5731 5730 5730 5730 5731
5628 5625 5622 5618 5616 5614 5614 5614 5615 5617 5620 5623 5627 5631 5636 5642 5647 5653 5658 5662 5666 5671 5676 5680 5684 5689 5694 5698 5703 5707 5710 5713 5715 5716 5717 5718 5719 5718 5718 5717 5716 5716 5717
5627 5624 5620 5617 5614 5612 5612 5611 5612 5614 5616 5619 5622 5625 5630 5635 5641 5646 5650 5654 5659 5663 5666 5671 5675 5679 5683 5686 5691 5694 5697 5700 5702 5704 5705 5705 5706 5705 5705 5704 5702 5701 5700
5627 5624 5620 5617 5614 5612 5611 5610 5610 5612 5613 5615 5617 5621 5625 5630 5635 5639 5644 5648 5652 5655 5658 5662 5666 5670 5673 5676 5679 5682 5684 5687 5689 5691 5691 5692 5692 5692 5691 5690 5689 5687 5685
5627 5624 5621 5617 5615 5612 5611 5610 5610 5610 5611 5613 5615 5618 5623 5627 5631 5635 5638 5642 5645 5647 5651 5654 5657 5659 5662 5664 5666 5669 5672 5674 5676 5677 5678 5679 5679 5678 5677 5676 5675 5673 5671
5628 5625 5622 5618 5615 5613 5612 5611 5611 5611 5611 5613 5615 5618 5621 5624 5628 5630 5633 5636 5638 5640 5643 5645 5647 5649 5651 5653 5654 5657 5660 5661 5663 5664 5664 5665 5664 5664 5663 5662 5661 5659 5658
5630 5627 5624 5620 5617 5615 5614 5613 5613 5613 5613 5614 5615 5617 5620 5622 5624 5626 5628 5630 5632 5633 5634 5636 5637 5639 5640 5642 5643 5645 5647 5648 5649 5650 5650 5650 5650 5650 5649 5648 5646 5645 5644
5631 5628 5626 5623 5620 5618 5616 5615 5615 5615 5615 5615 5616 5618 5619 5620 5621 5622 5623 5624 5625 5625 5626 5627 5628 5629 5630 5631 5632 5633 5634 5635 5635 5635 5635 5635 5635 5635 5634 5633 5632 5631 5630
5632 5630 5627 5625 5622 5620 5618 5617 5617 5616 5616 5616 5617 5617 5617 5617 5617 5617 5617 5618 5617 5617 5617 5618 5618 5619 5619 5620 5621 5622 5622 5622 5621 5621 5621 5621 5620 5619 5619 5618 5618 5616 5615
5633 5630 5628 5626 5623 5622 5620 5619 5618 5618 5617 5616 5616 5615 5614 5614 5613 5612 5611 5611 5610 5609 5609 5608 5608 5609 5608 5609 5609 5609 5609 5608 5608 5607 5606 5606 5605 5604 5604 5603 5602 5601 5600
5633 5630 5628 5626 5624 5622 5621 5619 5618 5617 5616 5615 5614 5613 5611 5610 5608 5607 5605 5604 5603 5601 5600 5600 5600 5599 5598 5598 5597 5596 5595 5595 5594 5593 5592 5591 5590 5589 5588 5588 5587 5586 5584
5632 5630 5627 5625 5623 5622 5620 5618 5617 5616 5614 5613 5611 5610 5608 5606 5604 5601 5599 5597 5596 5594 5592 5591 5590 5589 5588 5587 5585 5584 5582 5580 5579 5578 5576 5575 5574 5573 5572 5571 5571 5569 5569
5630 5628 5626 5624 5622 5620 5619 5617 5615 5613 5612 5610 5608 5606 5604 5601 5599 5596 5593 5591 5588 5586 5584 5582 5581 5579 5578 5576 5573 5571 5569 5567 5565 5563 5561 5560 5558 5558 5556 5555 5555 5554 5553
5628 5626 5624 5622 5620 5618 5616 5614 5613 5611 5609 5607 5604 5602 5599 5596 5593 5590 5587 5584 5581 5579 5576 5574 5572 5570 5567 5564 5562 5559 5556 5554 5553 5550 5548 5545 5543 5541 5539 5538 5538 5537 5537
5626 5624 5622 5620 5618 5616 5613 5611 5609 5607 5605 5602 5599 5596 5593 5590 5586 5583 5580 5577 5574 5571 5568 5565 5562 5559 5556 5553 5550 5547 5544 5541 5539 5536 5534 5532 5529 5527 5525 5524 5523 5522 5521
5622 5620 5618 5616 5614 5612 5610 5607 5605 5602 5599 5596 5593 5590 5586 5583 5579 5576 5572 5569 5566 5563 5560 5556 5552 5549 5545 5542 5539 5536 5532 5529 5526 5524 5521 5519 5517 5515 5512 5511 5509 5508 5507
5618 5616 5614 5612 5609 5607 5605 5602 5599 5596 5593 5590 5586 5582 5578 5575 5571 5568 5564 5561 5558 5555 5551 5547 5543 5539 5535 5532 5529 5525 5522 5518 5515 5512 5510 5507 5505 5503 5500 5498 5496 5495 5493
5612 5610 5608 5606 5604 5601 5599 5596 5593 5589 5586 5583 5579 5574 5570 5566 5563 5560 5556 5553 5549 5545 5541 5537 5533 5529 5525 5522 5518 5515 5512 5508 5505 5502 5499 5497 5494 5492 5489 5487 5485 5483 5482
5606 5604 5601 5599 5597 5594 5592 5588 5585 5582 5579 5575 5571 5566 5562 5558 5555 5551 5548 5544 5540 5536 5532 5528 5523 5519 5515 5512 5508 5504 5501 5498 5495 5492 5489 5487 5485 5482 5479 5477 5475 5473 5472
5599 5596 5594 5591 5589 5586 5583 5580 5577 5573 5570 5566 5562 5558 5554 5550 5546 5542 5538 5534 5530 5526 5522 5517 5513 5509 5506 5502 5499 5495 5492 5488 5485 5482 5480 5478 5476 5474 5471 5469 5466 5464 5463
Wind_Speed
31 33 35 38 40 42 44 47 50 53 55 57 59 60 61 61 61 60 59 58 56 56 55 54 52 50 49 46 45 45 44 42 42 42 41 40 40 40 39 38 38 38 38
28 31 32 33 35 37 39 42 46 49 52 55 56 57 59 60 59 58 58 57 56 56 55 54 54 52 51 49 47 47 45 44 43 43 43 42 42 42 41 41 40 41 41
27 29 30 31 33 34 36 37 39 43 46 50 53 55 57 58 59 58 58 57 56 56 55 53 53 54 53 51 49 49 47 46 45 45 44 44 44 42 42 42 43 43 43
24 26 27 28 29 30 31 33 35 38 41 47 50 51 53 54 55 55 56 55 55 55 55 55 54 53 53 53 51 50 48 47 46 46 45 46 46 45 44 44 44 45 45
20 23 23 23 24 25 27 30 32 35 37 40 43 45 48 51 51 52 53 54 54 55 55 55 53 52 53 53 51 51 51 49 47 48 47 48 48 47 48 46 46 47 47
16 17 17 18 19 21 23 25 27 29 32 35 39 41 43 46 48 48 48 50 53 53 53 54 53 52 53 54 53 52 52 51 49 49 48 49 49 49 49 49 48 48 47
11 12 12 12 13 14 16 18 21 24 27 30 34 37 40 42 44 44 43 45 48 50 50 51 52 53 53 55 55 54 53 52 52 52 51 51 51 51 49 49 49 49 49
8 8 8 7 8 10 12 14 17 20 22 25 28 31 34 36 38 39 39 41 43 46 47 49 51 52 53 54 55 56 54 54 54 53 52 53 52 52 51 51 51 51 51
7 7 7 6 5 5 7 10 13 15 17 20 23 26 28 30 32 34 35 37 40 42 44 45 47 50 52 53 54 54 54 54 54 54 54 54 53 53 53 54 54 54 53
7 6 6 6 3 3 3 5 8 11 14 16 20 23 25 26 28 30 32 34 36 39 41 43 44 47 50 51 53 53 53 53 54 55 55 54 54 55 54 54 54 54 54
8 8 7 7 4 2 1 2 6 9 11 13 16 20 22 23 24 25 27 29 33 37 39 41 43 44 47 49 50 52 53 53 53 53 53 54 55 55 55 55 54 54 55
9 9 8 8 7 4 1 1 2 4 6 9 11 14 18 20 21 22 24 26 29 33 36 39 40 41 43 45 47 50 51 52 52 52 53 53 53 54 54 54 53 53 54
10 10 10 10 9 7 4 1 1 1 3 5 7 10 14 17 19 21 23 25 27 30 33 37 39 41 42 44 46 47 49 50 50 51 51 51 52 53 53 53 52 52 53
9 10 11 10 9 9 6 4 2 1 1 3 6 8 12 15 17 20 22 25 26 28 31 34 37 39 41 42 44 45 47 49 49 49 49 50 52 53 52 52 52 52 53
9 9 10 9 9 8 6 4 3 1 1 4 6 9 11 13 16 18 20 22 24 27 29 31 33 35 38 40 43 44 46 48 49 49 50 51 52 52 51 51 51 52 54
9 9 9 9 8 7 6 4 3 3 4 6 7 9 12 14 15 17 18 20 23 25 27 28 31 34 36 39 42 44 45 47 48 49 50 51 52 51 51 51 52 52 53
8 9 8 8 8 7 6 6 6 7 8 9 10 12 14 16 18 19 20 22 24 25 27 29 31 33 35 38 41 43 45 46 47 47 49 51 50 51 53 54 53 53 53
9 8 9 8 8 7 8 8 8 8 9 11 13 14 16 17 19 20 21 22 23 25 26 28 30 32 34 37 39 41 42 43 45 46 47 49 49 51 52 53 54 54 54
10 10 10 10 10 9 10 10 10 11 12 14 16 17 18 19 20 21 22 23 24 26 27 28 30 31 33 36 38 39 40 41 42 43 44 46 47 48 50 51 52 52 52
12 12 12 13 13 13 13 13 13 13 14 16 17 19 20 21 22 22 23 24 26 26 28 28 30 33 34 35 36 37 38 39 40 42 42 44 45 46 47 48 49 50 50
13 13 14 15 15 15 16 17 17 17 18 19 20 22 23 23 24 25 26 27 27 28 29 30 32 34 34 34 34 35 37 38 38 40 40 41 42 43 44 45 46 47 48
15 16 17 18 18 18 19 19 20 21 22 23 24 25 26 26 26 27 27 28 29 30 31 32 34 34 34 33 34 35 36 36 37 37 38 38 39 40 41 42 43 44 45
19 19 19 20 21 21 22 23 23 24 25 26 28 29 29 28 28 28 28 29 30 31 32 33 34 34 34 34 34 34 34 34 34 34 35 36 37 37 38 40 41 42 42
21 21 21 22 23 24 25 26 26 27 28 28 29 30 30 30 29 28 29 30 31 32 33 33 34 33 33 33 33 33 34 34 34 33 33 33 33 34 35 36 38 39 39
23 24 24 25 26 26 27 28 28 29 30 30 31 31 31 31 30 30 30 31 31 32 33 33 33 33 33 33 33 32 32 32 32 32 31 31 31 31 32 33 33 34 35
26 26 26 27 27 28 29 30 30 31 32 32 32 32 31 31 32 32 32 33 33 33 33 33 33 32 32 31 31 31 31 31 30 30 29 29 28 29 30 30 31 32 32
Wind_Direction
264 262 261 261 258 255 253 250 245 242 240 237 234 234 234 235 235 235 237 237 238 239 240 240 240 240 239 240 241 245 248 249 251 254 256 257 259 260 262 264 266 268 271
267 266 265 263 259 255 254 250 244 241 239 236 234 233 233 234 234 235 236 236 238 238 239 240 239 238 239 240 241 243 246 249 251 254 255 257 259 261 263 264 267 269 271
271 269 267 265 260 256 253 247 243 241 238 235 234 233 233 233 234 235 236 237 238 238 239 239 239 238 239 240 242 243 246 249 251 253 255 258 260 263 264 265 267 269 272
275 272 269 267 260 253 250 246 243 240 237 235 233 232 232 232 233 234 235 236 238 239 240 240 239 238 238 239 241 243 246 249 251 253 257 260 262 264 265 265 267 269 270
278 274 270 264 259 253 248 244 242 239 237 233 231 230 230 230 232 233 235 237 237 239 240 240 239 239 239 239 240 242 245 248 251 255 257 260 263 265 266 267 268 269 270
283 280 275 266 260 253 246 244 242 237 234 232 231 230 230 229 230 232 234 235 236 237 238 238 239 240 240 240 240 243 245 247 251 253 257 262 263 265 267 268 269 269 270
289 289 284 273 262 253 246 243 238 234 233 232 230 229 228 228 228 230 232 235 237 237 238 238 239 241 242 242 242 244 245 249 251 254 259 263 265 265 267 269 269 270 271
306 311 305 294 272 255 242 240 237 233 230 229 226 225 226 227 227 228 232 235 237 238 239 239 240 241 242 243 244 245 246 250 252 256 259 264 266 266 267 269 270 271 272
332 331 335 326 292 252 239 237 236 231 228 227 223 222 220 223 225 228 233 236 239 240 240 241 242 243 243 243 245 246 249 251 253 256 260 263 264 266 266 268 270 272 273
349 347 349 344 323 259 242 228 219 222 226 224 220 219 222 224 224 226 231 236 239 241 241 243 245 247 247 249 250 250 251 252 255 258 260 263 264 266 266 267 269 271 273
10 5 2 5 355 332 256 209 216 219 218 216 214 215 217 221 222 228 235 239 241 242 244 246 248 249 250 252 252 253 253 255 257 259 261 263 264 265 266 267 268 269 272
28 27 27 29 34 37 53 201 213 215 211 208 210 217 223 229 231 235 241 245 247 248 247 249 251 252 253 255 255 254 255 256 259 261 262 262 264 265 267 268 268 270 271
34 35 31 31 38 39 38 57 117 143 189 198 210 220 231 237 241 246 248 249 254 255 253 254 255 256 256 257 257 257 257 259 261 262 263 264 264 265 267 268 268 269 271
23 22 24 33 37 35 41 57 81 106 191 232 241 243 246 254 257 257 255 256 258 259 259 258 258 257 258 259 260 260 261 262 263 264 265 265 265 266 267 268 269 269 271
21 19 20 23 26 25 24 34 46 38 272 260 258 258 261 268 266 264 261 263 264 264 263 261 260 260 260 261 262 263 263 264 264 265 265 266 266 267 268 268 269 269 270
10 7 7 8 9 9 6 0 350 337 316 296 288 284 284 286 281 276 274 274 272 269 268 266 266 266 266 265 265 265 266 265 265 266 266 267 268 267 267 268 267 269 270
353 352 351 358 2 356 349 336 324 317 315 311 301 296 295 294 290 283 282 280 277 276 273 271 271 271 272 271 270 269 268 267 267 266 266 266 268 268 268 268 267 268 269
330 333 340 343 345 344 343 335 324 316 312 310 308 305 303 300 296 292 288 288 285 283 281 279 277 277 276 275 275 274 272 270 269 269 269 268 268 268 268 267 267 268 269
322 325 328 331 332 330 327 324 319 316 313 312 311 309 307 304 301 297 295 293 290 288 287 285 284 283 282 280 279 279 277 273 271 271 271 271 270 271 270 269 270 270 271
319 322 323 326 327 325 322 319 316 315 314 312 309 309 309 307 305 301 299 298 296 295 292 291 289 288 289 288 286 283 281 278 274 273 273 274 274 274 273 272 271 271 272
311 314 316 318 318 319 318 318 315 314 315 315 312 311 310 309 306 302 300 299 297 296 296 294 293 292 292 290 288 286 283 280 277 276 275 276 276 275 274 273 273 273 273
301 305 308 311 312 313 313 313 312 310 310 312 312 312 311 309 306 302 300 299 298 297 296 296 296 295 293 289 288 286 284 282 280 278 278 278 277 276 276 274 273 274 274
295 298 301 303 305 307 309 310 309 308 308 309 310 310 309 309 306 302 300 298 298 299 297 297 297 295 293 289 287 286 286 286 283 282 281 281 280 278 278 276 274 274 273
292 292 294 297 299 301 303 306 308 307 308 308 309 309 308 307 306 303 302 301 301 301 300 299 298 296 294 291 289 288 288 288 285 283 281 282 282 282 282 280 277 275 274
292 291 292 293 295 297 299 303 305 306 306 308 308 308 307 307 306 305 304 303 302 302 301 301 299 297 294 292 290 289 291 290 288 286 283 283 283 284 284 281 280 278 277
291 292 292 293 296 297 298 300 302 304 304 305 305 305 305 304 305 305 305 304 303 301 300 301 301 297 295 293 293 293 292 292 292 288 286 285 285 286 285 283 282 280 278